Location: Grange Rosano
(44.4500°N, 6.9667°E)
Time: 21:21:26
(UTC+00:00)

GP-B - Pass Details

Date: 26 May 2022
Orbit: 630 x 634 km, 89.8° (Epoch: 01 July)

Event Time Altitude Azimuth Distance (km) Brightness Sun altitude
Rises 00:51:04 0° 359° (N) 2,940 7.7 -21.8°
Reaches altitude 10° 00:53:18 10° 357° (N) 2,026 6.6 -21.7°
Maximum altitude 00:57:43 68° 275° (W) 686 3.1 -21.4°
Enters shadow 00:58:22 58° 226° (SW) 740 3.1 -21.4°
